Weather Roundup
Issued by NWS Chicago, IL

Home | Current Version | Previous Version | Text Only | Print | Product List | Glossary Off
Versions: 1 2 3 4 5 6 7 8 9 10 11 12 13 14 15 16 17 18 19 20 21 22 23 24 25 26 27 28 29 30 31 32 33 34 35 36 37 38 39 40 41 42 43 44 45 46 47 48 49 50

000
NZUS59 KLOT 291603
HRRLOT

CHICAGO AREA WEATHER ROUNDUP
NATIONAL WEATHER SERVICE CHICAGO/ROMEOVILLE IL
1100 AM CDT SAT APR 29 2017

NOTE: "FAIR" INDICATES FEW OR NO CLOUDS BELOW 12,000 FEET WITH NO
SIGNIFICANT WEATHER AND/OR OBSTRUCTIONS TO VISIBILITY.

* THESE STATIONS ARE NOT UNDER NWS QUALITY CONTROL. THEY ALSO MAY NOT
  REPORT WEATHER SUCH AS PRECIPITATION OR FOG.

ILZ005-006-012>014-019>023-291700-
NORTHEAST ILLINOIS

CITY           SKY/WX    TMP DP  RH WIND       PRES   REMARKS
OHARE          CLOUDY    45  32  60 NE22G32   30.15R
MIDWAY         CLOUDY    45  36  70 NE26G36   30.15R
AURORA         CLOUDY    47  33  58 NE24G31   30.12R
LANSING*       CLOUDY    45  39  79 NE17G30   30.14R
WAUKEGAN       PTSUNNY   42  33  70 N23G32    30.18R
DUPAGE AIRPORT CLOUDY    46  34  62 NE22G31   30.13R
WHEELING       CLOUDY    43  35  73 NE17G31   30.18R
MORRIS*        LGT RAIN  47  36  66 NE10G23   30.10R
NORTHERLY ISL    N/A     43  37  79 MISG        N/A
$$

WIZ051-052-058>065-066-070>072-291700-
SOUTHEAST WISCONSIN

CITY           SKY/WX    TMP DP  RH WIND       PRES   REMARKS
MILWAUKEE      CLOUDY    42  32  67 N21G35    30.22S
KENOSHA*       CLOUDY    43  33  68 NE22G30   30.20R
RACINE*        CLOUDY    43  32  65 NE24G33   30.23R
WAUKESHA       SUNNY     41  30  65 NE17G25   30.22S
$$

INZ001>003-010>013-019-020-291700-
NORTHWEST INDIANA

CITY           SKY/WX    TMP DP  RH WIND       PRES   REMARKS
GARY*          CLOUDY    46  37  71 N21G37    30.14R
MICHIGAN CITY* NOT AVBL
RENSSELAER*    NOT AVBL
VALPARAISO     CLOUDY    49  43  80 N9        30.15R
$$

LMZ740>746-291700-
SOUTHERN LAKE MICHIGAN

STATION/POSITION TIME  SKY/WX   TEMP WIND        PRES    VSBY
                                AIR  DIR/SP/G
                 (UTC)          (F)  (DEG/KT/KT) (MB)    (MI)
HARRISON CRIB    1530            42   10/ 25/ 27   N/A
BURNHAM HARBOR   1600            43   10/ 20/ 23   N/A
CALUMET HARBOR   1530            44  350/ 14/ 23 1021.3R
BURNS HARBOR     1540            44   20/ 21/ 24 1021.3R
MICHIGAN CITY    1540            44   10/ 22/ 25   N/A
$$

ABBREVIATIONS USED IN REMARKS
   TC - TEMPERATURE IN CELSIUS
  WCI - WIND CHILL INDEX
   HX - HEAT INDEX
  VSB - VISIBILITY
$$




USA.gov is the U.S. government's official web portal to all federal, state and local government web resources and services.